| time (UTC) | temp F | wind direction | speed MPH | gust MPH | rain 1hr in | rain 24hr in | rain mn in | humidity % | barometer mb |
| 20260507191344 | 64 | 210 | 4.0 | 11.0 | 0.00 | 0.00 | 0.00 | 24 | |
| 20260507190844 | 64 | 23 | 0.0 | 7.0 | 0.00 | 0.00 | 0.00 | 23 | |
| 20260507190346 | 64 | 7 | 0.0 | 6.0 | 0.00 | 0.00 | 0.00 | 25 | |
| 20260507190128 | 63 | 181 | 3.0 | 5.0 | 0.00 | 0.00 | 0.00 | 27 | |
| 20260507185844 | 63 | 181 | 3.0 | 5.0 | 0.00 | 0.00 | 0.00 | 27 | |
| 20260507185344 | 63 | 73 | 3.0 | 9.0 | 0.00 | 0.00 | 0.00 | 26 | |
| 20260507184844 | 63 | 112 | 6.0 | 8.0 | 0.00 | 0.00 | 0.00 | 29 | |
| 20260507184344 | 63 | 196 | 3.0 | 6.0 | 0.00 | 0.00 | 0.00 | 30 | |
| 20260507183844 | 63 | 70 | 1.0 | 7.0 | 0.00 | 0.00 | 0.00 | 29 | |
| 20260507183345 | 63 | 320 | 1.0 | 7.0 | 0.00 | 0.00 | 0.00 | 29 | |
| 20260507182844 | 62 | 87 | 1.0 | 7.0 | 0.00 | 0.00 | 0.00 | 31 | |
| 20260507182344 | 62 | 105 | 2.0 | 6.0 | 0.00 | 0.00 | 0.00 | 31 | |
| 20260507181844 | 62 | 19 | 0.0 | 6.0 | 0.00 | 0.00 | 0.00 | 30 | |
| 20260507181344 | 62 | 91 | 1.0 | 2.0 | 0.00 | 0.00 | 0.00 | 31 | |
| 20260507180844 | 61 | 140 | 1.0 | 8.0 | 0.00 | 0.00 | 0.00 | 33 | |
| 20260507180344 | 61 | 97 | 4.0 | 6.0 | 0.00 | 0.00 | 0.00 | 32 | |
| 20260507175844 | 61 | 84 | 0.0 | 1.0 | 0.00 | 0.00 | 0.00 | 32 | |
| 20260507175344 | 60 | 40 | 0.0 | 4.0 | 0.00 | 0.00 | 0.00 | 32 | |
| 20260507174844 | 59 | 151 | 3.0 | 5.0 | 0.00 | 0.00 | 0.00 | 34 | |
| 20260507174344 | 59 | 132 | 4.0 | 7.0 | 0.00 | 0.00 | 0.00 | 31 | |
| 20260507173844 | 59 | 77 | 3.0 | 7.0 | 0.00 | 0.00 | 0.00 | 31 | |
| 20260507173344 | 59 | 181 | 3.0 | 4.0 | 0.00 | 0.00 | 0.00 | 32 | |
| 20260507172844 | 59 | 50 | 2.0 | 6.0 | 0.00 | 0.00 | 0.00 | 31 | |
| 20260507172344 | 59 | 336 | 1.0 | 7.0 | 0.00 | 0.00 | 0.00 | 31 | |
| 20260507171844 | 59 | 4 | 1.0 | 6.0 | 0.00 | 0.00 | 0.00 | 30 | |
| 20260507171344 | 59 | 104 | 4.0 | 6.0 | 0.00 | 0.00 | 0.00 | 31 | |
| 20260507170844 | 59 | 146 | 0.0 | 7.0 | 0.00 | 0.00 | 0.00 | 32 | |
| 20260507170344 | 58 | 42 | 5.0 | 7.0 | 0.00 | 0.00 | 0.00 | 31 | |
| 20260507165844 | 58 | 59 | 0.0 | 4.0 | 0.00 | 0.00 | 0.00 | 29 | |
| 20260507165345 | 58 | 45 | 1.0 | 4.0 | 0.00 | 0.00 | 0.00 | 27 | |
| 20260507164845 | 58 | 49 | 0.0 | 3.0 | 0.00 | 0.00 | 0.00 | 30 | |
| 20260507164345 | 57 | 343 | 1.0 | 5.0 | 0.00 | 0.00 | 0.00 | 27 | |
| 20260507163845 | 57 | 153 | 2.0 | 6.0 | 0.00 | 0.00 | 0.00 | 29 | |
| 20260507163345 | 57 | 184 | 2.0 | 5.0 | 0.00 | 0.00 | 0.00 | 29 | |
| 20260507162845 | 56 | 127 | 1.0 | 5.0 | 0.00 | 0.00 | 0.00 | 30 | |
| 20260507162345 | 56 | 262 | 0.0 | 5.0 | 0.00 | 0.00 | 0.00 | 33 | |
| 20260507161845 | 56 | 63 | 0.0 | 5.0 | 0.00 | 0.00 | 0.00 | 32 | |
| 20260507161345 | 55 | 43 | 0.0 | 0.0 | 0.00 | 0.00 | 0.00 | 34 | |
| 20260507160845 | 55 | 43 | 0.0 | 4.0 | 0.00 | 0.00 | 0.00 | 33 | |
| 20260507160345 | 54 | 165 | 0.0 | 3.0 | 0.00 | 0.00 | 0.00 | 37 | |
| 20260507155845 | 54 | 149 | 0.0 | 3.0 | 0.00 | 0.00 | 0.00 | 39 | |
| 20260507155345 | 53 | 106 | 0.0 | 2.0 | 0.00 | 0.00 | 0.00 | 41 | |
| 20260507154845 | 53 | 105 | 0.0 | 5.0 | 0.00 | 0.00 | 0.00 | 41 | |
| 20260507154345 | 53 | 80 | 0.0 | 5.0 | 0.00 | 0.00 | 0.00 | 41 | |
| 20260507153845 | 53 | 118 | 0.0 | 3.0 | 0.00 | 0.00 | 0.00 | 42 | |
| 20260507153345 | 52 | 7 | 1.0 | 4.0 | 0.00 | 0.00 | 0.00 | 43 | |
| 20260507152845 | 52 | 129 | 0.0 | 2.0 | 0.00 | 0.00 | 0.00 | 44 | |
| 20260507152345 | 52 | 115 | 0.0 | 0.0 | 0.00 | 0.00 | 0.00 | 47 | |
| 20260507151845 | 51 | 115 | 0.0 | 5.0 | 0.00 | 0.00 | 0.00 | 47 | |
| 20260507151345 | 51 | 123 | 0.0 | 2.0 | 0.00 | 0.00 | 0.00 | 47 | |
| 20260507150845 | 51 | 137 | 0.0 | 2.0 | 0.00 | 0.00 | 0.00 | 49 | |
| 20260507150345 | 50 | 118 | 0.0 | 0.0 | 0.00 | 0.00 | 0.00 | 49 | |
| 20260507145847 | 50 | 118 | 0.0 | 0.0 | 0.00 | 0.00 | 0.00 | 43 | |
| 20260507145345 | 49 | 118 | 0.0 | 0.0 | 0.00 | 0.00 | 0.00 | 50 | |
| 20260507144846 | 48 | 118 | 0.0 | 0.0 | 0.00 | 0.00 | 0.00 | 51 | |
| 20260507144345 | 47 | 118 | 0.0 | 1.0 | 0.00 | 0.00 | 0.00 | 53 | |
| 20260507143845 | 45 | 60 | 0.0 | 0.0 | 0.00 | 0.00 | 0.00 | 57 | |
| 20260507143345 | 43 | 60 | 0.0 | 2.0 | 0.00 | 0.00 | 0.00 | 59 | |
| 20260507142845 | 40 | 327 | 0.0 | 0.0 | 0.00 | 0.00 | 0.00 | 67 | |
| 20260507142345 | 38 | 327 | 0.0 | 0.0 | 0.00 | 0.00 | 0.00 | 75 | |
| 20260507141846 | 36 | 327 | 0.0 | 0.0 | 0.00 | 0.00 | 0.00 | 79 | |
| 20260507141345 | 35 | 327 | 0.0 | 1.0 | 0.00 | 0.00 | 0.00 | 82 | |
| 20260507140845 | 34 | 329 | 1.0 | 3.0 | 0.00 | 0.00 | 0.00 | 83 | |
| 20260507140345 | 34 | 327 | 1.0 | 2.0 | 0.00 | 0.00 | 0.00 | 85 | |
| 20260507135845 | 33 | 331 | 2.0 | 2.0 | 0.00 | 0.00 | 0.00 | 85 | |
| 20260507135345 | 32 | 317 | 2.0 | 3.0 | 0.00 | 0.00 | 0.00 | 86 | |
| 20260507134845 | 32 | 324 | 3.0 | 3.0 | 0.00 | 0.00 | 0.00 | 88 | |
| 20260507134345 | 32 | 330 | 1.0 | 2.0 | 0.00 | 0.00 | 0.00 | 88 | |
| 20260507133845 | 31 | 331 | 2.0 | 4.0 | 0.00 | 0.00 | 0.00 | 88 | |
| 20260507133345 | 31 | 320 | 4.0 | 5.0 | 0.00 | 0.00 | 0.00 | 88 | |
| 20260507132845 | 31 | 316 | 4.0 | 5.0 | 0.00 | 0.00 | 0.00 | 87 | |
| 20260507132345 | 31 | 299 | 2.0 | 3.0 | 0.00 | 0.00 | 0.00 | 87 | |
| 20260507131845 | 31 | 315 | 2.0 | 4.0 | 0.00 | 0.00 | 0.00 | 87 | |
| 20260507131346 | 31 | 307 | 2.0 | 3.0 | 0.00 | 0.00 | 0.00 | 88 | |
| 20260507130845 | 30 | 305 | 0.0 | 3.0 | 0.00 | 0.00 | 0.00 | 89 | |
| 20260507130345 | 30 | 307 | 3.0 | 3.0 | 0.00 | 0.00 | 0.00 | 90 | |
| 20260507125846 | 30 | 317 | 2.0 | 4.0 | 0.00 | 0.00 | 0.00 | 90 | |
| 20260507125345 | 30 | 329 | 2.0 | 3.0 | 0.00 | 0.00 | 0.00 | 89 | |
| 20260507124845 | 30 | 296 | 3.0 | 3.0 | 0.00 | 0.00 | 0.00 | 93 | |
| 20260507124345 | 30 | 284 | 0.0 | 3.0 | 0.00 | 0.00 | 0.00 | 93 | |
| 20260507123845 | 29 | 254 | 0.0 | 2.0 | 0.00 | 0.00 | 0.00 | 95 | |
| 20260507123345 | 29 | 137 | 0.0 | 0.0 | 0.00 | 0.00 | 0.00 | 95 | |
| 20260507122845 | 29 | 137 | 0.0 | 0.0 | 0.00 | 0.00 | 0.00 | 95 | |
| 20260507122345 | 29 | 137 | 0.0 | 0.0 | 0.00 | 0.00 | 0.00 | 95 | |
| 20260507121845 | 29 | 137 | 0.0 | 0.0 | 0.00 | 0.00 | 0.00 | 95 | |
| 20260507121345 | 29 | 137 | 0.0 | 0.0 | 0.00 | 0.00 | 0.00 | 95 | |
| 20260507120846 | 29 | 137 | 0.0 | 0.0 | 0.00 | 0.00 | 0.00 | 95 | |
| 20260507120345 | 29 | 137 | 0.0 | 0.0 | 0.00 | 0.00 | 0.00 | 95 | |
| 20260507115845 | 29 | 137 | 0.0 | 0.0 | 0.00 | 0.00 | 0.00 | 95 | |
| 20260507115346 | 30 | 137 | 0.0 | 0.0 | 0.00 | 0.00 | 0.00 | 95 | |
| 20260507114845 | 30 | 137 | 0.0 | 0.0 | 0.00 | 0.00 | 0.00 | 95 | |
| 20260507114345 | 30 | 137 | 0.0 | 0.0 | 0.00 | 0.00 | 0.00 | 95 | |
| 20260507113845 | 30 | 137 | 0.0 | 0.0 | 0.00 | 0.00 | 0.00 | 95 | |
| 20260507113345 | 30 | 137 | 0.0 | 0.0 | 0.00 | 0.00 | 0.00 | 95 | |
| 20260507112845 | 30 | 137 | 0.0 | 0.0 | 0.00 | 0.00 | 0.00 | 95 | |
| 20260507112345 | 30 | 137 | 0.0 | 0.0 | 0.00 | 0.00 | 0.00 | 95 | |
| 20260507111845 | 30 | 137 | 0.0 | 0.0 | 0.00 | 0.00 | 0.00 | 95 | |
| 20260507111345 | 30 | 137 | 0.0 | 0.0 | 0.00 | 0.00 | 0.00 | 95 | |
| 20260507110845 | 30 | 137 | 0.0 | 0.0 | 0.00 | 0.00 | 0.00 | 95 | |
| 20260507110345 | 30 | 137 | 0.0 | 0.0 | 0.00 | 0.00 | 0.00 | 95 | |
| 20260507105845 | 30 | 137 | 0.0 | 0.0 | 0.00 | 0.00 | 0.00 | 95 | |
| 20260507105345 | 30 | 137 | 0.0 | 0.0 | 0.00 | 0.00 | 0.00 | 95 | |
| 20260507104845 | 30 | 137 | 0.0 | 0.0 | 0.00 | 0.00 | 0.00 | 95 | |
| 20260507104345 | 30 | 137 | 0.0 | 0.0 | 0.00 | 0.00 | 0.00 | 95 | |
| 20260507103845 | 30 | 137 | 0.0 | 0.0 | 0.00 | 0.00 | 0.00 | 95 | |
| 20260507103345 | 30 | 137 | 0.0 | 0.0 | 0.00 | 0.00 | 0.00 | 95 | |
| 20260507102845 | 31 | 137 | 0.0 | 0.0 | 0.00 | 0.00 | 0.00 | 95 | |
| 20260507102345 | 31 | 137 | 0.0 | 0.0 | 0.00 | 0.00 | 0.00 | 95 | |
| 20260507101845 | 31 | 137 | 0.0 | 0.0 | 0.00 | 0.00 | 0.00 | 95 | |
| 20260507101346 | 31 | 137 | 0.0 | 0.0 | 0.00 | 0.00 | 0.00 | 95 | |
| 20260507100845 | 31 | 137 | 0.0 | 0.0 | 0.00 | 0.00 | 0.00 | 95 | |
| 20260507100345 | 31 | 137 | 0.0 | 0.0 | 0.00 | 0.00 | 0.00 | 95 | |
| 20260507095845 | 31 | 137 | 0.0 | 0.0 | 0.00 | 0.00 | 0.00 | 95 | |
| 20260507095345 | 31 | 137 | 0.0 | 0.0 | 0.00 | 0.00 | 0.00 | 95 | |
| 20260507094845 | 31 | 137 | 0.0 | 0.0 | 0.00 | 0.00 | 0.00 | 95 | |
| 20260507094345 | 31 | 137 | 0.0 | 0.0 | 0.00 | 0.00 | 0.00 | 95 | |
| 20260507093845 | 31 | 137 | 0.0 | 0.0 | 0.00 | 0.00 | 0.00 | 95 | |
| 20260507093345 | 31 | 137 | 0.0 | 0.0 | 0.00 | 0.00 | 0.00 | 95 | |
| 20260507092846 | 31 | 137 | 0.0 | 0.0 | 0.00 | 0.00 | 0.00 | 95 | |
| 20260507092345 | 32 | 137 | 0.0 | 0.0 | 0.00 | 0.00 | 0.00 | 95 | |
| 20260507091845 | 32 | 137 | 0.0 | 0.0 | 0.00 | 0.00 | 0.00 | 96 | |
| 20260507091345 | 32 | 137 | 0.0 | 0.0 | 0.00 | 0.00 | 0.00 | 95 | |
| 20260507090845 | 32 | 137 | 0.0 | 0.0 | 0.00 | 0.00 | 0.00 | 95 | |
| 20260507090345 | 32 | 137 | 0.0 | 0.0 | 0.00 | 0.00 | 0.00 | 95 | |
| 20260507085845 | 32 | 137 | 0.0 | 0.0 | 0.00 | 0.00 | 0.00 | 95 | |
| 20260507085345 | 32 | 137 | 0.0 | 0.0 | 0.00 | 0.00 | 0.00 | 95 | |
| 20260507084845 | 32 | 137 | 0.0 | 0.0 | 0.00 | 0.00 | 0.00 | 95 | |
| 20260507084345 | 33 | 137 | 0.0 | 0.0 | 0.00 | 0.00 | 0.00 | 95 | |
| 20260507083845 | 33 | 137 | 0.0 | 0.0 | 0.00 | 0.00 | 0.00 | 95 | |
| 20260507083345 | 33 | 137 | 0.0 | 0.0 | 0.00 | 0.00 | 0.00 | 95 | |
| 20260507082846 | 33 | 137 | 0.0 | 0.0 | 0.00 | 0.00 | 0.00 | 95 | |
| 20260507082346 | 33 | 137 | 0.0 | 0.0 | 0.00 | 0.00 | 0.00 | 95 | |
| 20260507081845 | 33 | 137 | 0.0 | 0.0 | 0.00 | 0.00 | 0.00 | 94 | |
| 20260507081345 | 33 | 137 | 0.0 | 0.0 | 0.00 | 0.00 | 0.00 | 94 | |
| 20260507080845 | 33 | 137 | 0.0 | 0.0 | 0.00 | 0.00 | 0.00 | 94 | |
| 20260507080345 | 34 | 137 | 0.0 | 0.0 | 0.00 | 0.00 | 0.00 | 93 | |
| 20260507075846 | 34 | 137 | 0.0 | 0.0 | 0.00 | 0.00 | 0.00 | 93 | |
| 20260507075345 | 34 | 137 | 0.0 | 0.0 | 0.00 | 0.00 | 0.00 | 93 | |
| 20260507074845 | 34 | 137 | 0.0 | 0.0 | 0.00 | 0.00 | 0.00 | 93 | |
| 20260507074346 | 35 | 137 | 0.0 | 0.0 | 0.00 | 0.00 | 0.00 | 92 | |
| 20260507073846 | 35 | 137 | 0.0 | 0.0 | 0.00 | 0.00 | 0.00 | 93 | |
| 20260507073346 | 35 | 137 | 0.0 | 0.0 | 0.00 | 0.00 | 0.00 | 92 | |
| 20260507072846 | 36 | 137 | 0.0 | 0.0 | 0.00 | 0.00 | 0.00 | 92 | |
| 20260507072346 | 36 | 137 | 0.0 | 0.0 | 0.00 | 0.00 | 0.00 | 91 | |
| 20260507071846 | 36 | 137 | 0.0 | 0.0 | 0.00 | 0.00 | 0.00 | 91 | |
| 20260507071346 | 36 | 137 | 0.0 | 0.0 | 0.00 | 0.00 | 0.00 | 91 | |
| 20260507070846 | 37 | 137 | 0.0 | 0.0 | 0.00 | 0.00 | 0.00 | 90 | |
| 20260507070346 | 37 | 137 | 0.0 | 0.0 | 0.00 | 0.00 | 0.00 | 90 | |
| 20260507065846 | 37 | 137 | 0.0 | 0.0 | 0.00 | 0.00 | 0.00 | 90 | |
| 20260507065346 | 37 | 137 | 0.0 | 0.0 | 0.00 | 0.00 | 0.00 | 90 | |
| 20260507064846 | 38 | 137 | 0.0 | 0.0 | 0.00 | 0.00 | 0.00 | 90 | |
| 20260507064346 | 38 | 137 | 0.0 | 0.0 | 0.00 | 0.00 | 0.00 | 89 | |
| 20260507063846 | 38 | 137 | 0.0 | 0.0 | 0.00 | 0.00 | 0.00 | 89 | |
| 20260507063346 | 38 | 137 | 0.0 | 0.0 | 0.00 | 0.00 | 0.00 | 89 | |
| 20260507062846 | 38 | 137 | 0.0 | 0.0 | 0.00 | 0.00 | 0.00 | 89 | |
| 20260507062346 | 38 | 137 | 0.0 | 0.0 | 0.00 | 0.00 | 0.00 | 89 | |
| 20260507061846 | 38 | 137 | 0.0 | 0.0 | 0.00 | 0.00 | 0.00 | 89 | |
| 20260507061346 | 39 | 137 | 0.0 | 0.0 | 0.00 | 0.00 | 0.00 | 89 | |
| 20260507060846 | 39 | 137 | 0.0 | 0.0 | 0.00 | 0.00 | 0.00 | 89 | |
| 20260507060346 | 39 | 137 | 0.0 | 0.0 | 0.00 | 0.00 | 0.00 | 89 | |
| 20260507055846 | 39 | 137 | 0.0 | 0.0 | 0.00 | 0.00 | 0.00 | 89 | |
| 20260507055346 | 39 | 137 | 0.0 | 2.0 | 0.00 | 0.00 | 0.00 | 89 | |
| 20260507054846 | 39 | 143 | 2.0 | 2.0 | 0.00 | 0.00 | 0.00 | 89 | |
| 20260507054346 | 39 | 255 | 0.0 | 0.0 | 0.00 | 0.00 | 0.00 | 89 | |
| 20260507053846 | 39 | 255 | 0.0 | 0.0 | 0.00 | 0.00 | 0.00 | 89 | |
| 20260507053346 | 39 | 255 | 0.0 | 3.0 | 0.00 | 0.00 | 0.00 | 89 | |
| 20260507052846 | 39 | 213 | 0.0 | 0.0 | 0.00 | 0.00 | 0.00 | 90 | |
| 20260507052346 | 39 | 213 | 0.0 | 0.0 | 0.00 | 0.00 | 0.00 | 91 | |
| 20260507051846 | 39 | 213 | 0.0 | 0.0 | 0.00 | 0.00 | 0.00 | 91 | |
| 20260507051346 | 39 | 213 | 0.0 | 0.0 | 0.00 | 0.00 | 0.00 | 91 | |
| 20260507050846 | 39 | 213 | 0.0 | 0.0 | 0.00 | 0.00 | 0.00 | 91 | |
| 20260507050346 | 38 | 213 | 0.0 | 3.0 | 0.00 | 0.01 | 0.00 | 91 | |
| 20260507045846 | 39 | 209 | 0.0 | 2.0 | 0.00 | 0.01 | 0.00 | 91 | |
| 20260507045346 | 39 | 194 | 0.0 | 0.0 | 0.00 | 0.01 | 0.00 | 91 | |
| 20260507044846 | 39 | 194 | 0.0 | 0.0 | 0.00 | 0.01 | 0.00 | 91 | |
| 20260507044346 | 39 | 194 | 0.0 | 0.0 | 0.00 | 0.01 | 0.00 | 90 | |
| 20260507043846 | 39 | 194 | 0.0 | 3.0 | 0.00 | 0.01 | 0.00 | 90 | |
| 20260507043346 | 39 | 199 | 0.0 | 1.0 | 0.00 | 0.01 | 0.00 | 90 | |
| 20260507042846 | 39 | 203 | 0.0 | 4.0 | 0.00 | 0.01 | 0.00 | 89 | |
| 20260507042346 | 38 | 127 | 0.0 | 5.0 | 0.00 | 0.01 | 0.00 | 89 | |
| 20260507041846 | 38 | 177 | 0.0 | 3.0 | 0.00 | 0.01 | 0.00 | 90 | |
| 20260507041346 | 38 | 229 | 2.0 | 3.0 | 0.00 | 0.01 | 0.00 | 90 | |
| 20260507040846 | 38 | 156 | 1.0 | 5.0 | 0.00 | 0.01 | 0.00 | 90 | |
| 20260507040346 | 38 | 149 | 2.0 | 4.0 | 0.00 | 0.01 | 0.00 | 90 | |
| 20260507035846 | 39 | 158 | 1.0 | 4.0 | 0.00 | 0.01 | 0.00 | 89 | |
| 20260507035346 | 39 | 195 | 2.0 | 3.0 | 0.00 | 0.01 | 0.00 | 89 | |
| 20260507034846 | 39 | 215 | 0.0 | 5.0 | 0.00 | 0.01 | 0.00 | 89 | |
| 20260507034346 | 39 | 260 | 0.0 | 0.0 | 0.00 | 0.01 | 0.00 | 89 | |
| 20260507033846 | 39 | 260 | 0.0 | 4.0 | 0.00 | 0.01 | 0.00 | 89 | |
| 20260507033346 | 39 | 212 | 0.0 | 5.0 | 0.00 | 0.01 | 0.00 | 88 | |
| 20260507032846 | 39 | 36 | 2.0 | 4.0 | 0.00 | 0.01 | 0.00 | 89 | |
| 20260507032346 | 39 | 286 | 0.0 | 0.0 | 0.00 | 0.01 | 0.00 | 89 | |
| 20260507031846 | 39 | 286 | 0.0 | 2.0 | 0.00 | 0.01 | 0.00 | 89 | |
| 20260507031346 | 39 | 251 | 1.0 | 3.0 | 0.00 | 0.01 | 0.00 | 89 | |
| 20260507030846 | 39 | 216 | 0.0 | 0.0 | 0.00 | 0.01 | 0.00 | 89 | |
| 20260507030346 | 39 | 216 | 0.0 | 0.0 | 0.00 | 0.04 | 0.00 | 89 | |
| 20260507025846 | 40 | 216 | 0.0 | 0.0 | 0.00 | 0.04 | 0.00 | 88 | |
| 20260507025346 | 40 | 216 | 0.0 | 0.0 | 0.00 | 0.04 | 0.00 | 88 | |
| 20260507024846 | 40 | 216 | 0.0 | 0.0 | 0.00 | 0.04 | 0.00 | 88 | |
| 20260507024346 | 40 | 216 | 0.0 | 0.0 | 0.00 | 0.04 | 0.00 | 88 | |
| 20260507023846 | 40 | 216 | 0.0 | 0.0 | 0.00 | 0.04 | 0.00 | 87 | |
| 20260507023346 | 40 | 216 | 0.0 | 1.0 | 0.00 | 0.04 | 0.00 | 88 | |
| 20260507022847 | 40 | 185 | 1.0 | 2.0 | 0.00 | 0.04 | 0.00 | 88 | |
| 20260507022346 | 40 | 241 | 0.0 | 3.0 | 0.00 | 0.04 | 0.00 | 87 | |
| 20260507021846 | 41 | 181 | 3.0 | 9.0 | 0.00 | 0.04 | 0.00 | 88 | |
| 20260507021346 | 41 | 226 | 2.0 | 8.0 | 0.00 | 0.04 | 0.00 | 87 | |
| 20260507020846 | 41 | 223 | 4.0 | 6.0 | 0.00 | 0.04 | 0.00 | 86 | |
| 20260507020346 | 41 | 201 | 4.0 | 5.0 | 0.00 | 0.04 | 0.00 | 86 | |
| 20260507015846 | 42 | 338 | 0.0 | 5.0 | 0.00 | 0.04 | 0.00 | 85 | |
| 20260507015346 | 42 | 209 | 3.0 | 3.0 | 0.00 | 0.04 | 0.00 | 84 | |
| 20260507014846 | 42 | 258 | 0.0 | 0.0 | 0.00 | 0.04 | 0.00 | 83 | |
| 20260507014346 | 42 | 258 | 0.0 | 0.0 | 0.00 | 0.04 | 0.00 | 82 | |
| 20260507013846 | 42 | 258 | 0.0 | 0.0 | 0.00 | 0.04 | 0.00 | 82 | |
| 20260507013347 | 42 | 258 | 0.0 | 0.0 | 0.00 | 0.04 | 0.00 | 82 | |
| 20260507012847 | 42 | 258 | 0.0 | 0.0 | 0.00 | 0.04 | 0.00 | 81 | |
| 20260507012346 | 42 | 258 | 0.0 | 2.0 | 0.00 | 0.04 | 0.00 | 82 | |
| 20260507011847 | 42 | 74 | 0.0 | 0.0 | 0.00 | 0.04 | 0.00 | 81 | |
| 20260507011346 | 43 | 74 | 0.0 | 0.0 | 0.00 | 0.04 | 0.00 | 80 | |
| 20260507010846 | 43 | 74 | 0.0 | 0.0 | 0.00 | 0.04 | 0.00 | 80 | |
| 20260507010346 | 43 | 74 | 0.0 | 0.0 | 0.00 | 0.04 | 0.00 | 82 | |
| 20260507005846 | 43 | 7 | 0.0 | 4.0 | 0.00 | 0.04 | 0.00 | 81 | |
| 20260507005346 | 44 | 39 | 2.0 | 4.0 | 0.00 | 0.04 | 0.00 | 80 | |
| 20260507004846 | 45 | 19 | 0.0 | 6.0 | 0.00 | 0.04 | 0.00 | 74 | |
| 20260507004346 | 46 | 358 | 1.0 | 7.0 | 0.00 | 0.04 | 0.00 | 71 | |
| 20260507003846 | 49 | 305 | 0.0 | 6.0 | 0.00 | 0.04 | 0.00 | 62 | |
| 20260507003346 | 50 | 225 | 3.0 | 5.0 | 0.00 | 0.04 | 0.00 | 57 | |
| 20260507002846 | 50 | 274 | 5.0 | 7.0 | 0.00 | 0.04 | 0.00 | 56 | |
| 20260507002346 | 50 | 336 | 4.0 | 9.0 | 0.00 | 0.04 | 0.00 | 57 | |
| 20260507001846 | 50 | 281 | 4.0 | 11.0 | 0.00 | 0.04 | 0.00 | 57 | |
| 20260507001346 | 51 | 329 | 5.0 | 9.0 | 0.00 | 0.04 | 0.00 | 55 | |
| 20260507000846 | 52 | 77 | 5.0 | 14.0 | 0.00 | 0.04 | 0.00 | 50 | |
| 20260507000346 | 52 | 317 | 2.0 | 17.0 | 0.00 | 0.04 | 0.00 | 49 | |
| 20260506235846 | 52 | 358 | 3.0 | 18.0 | 0.00 | 0.04 | 0.00 | 47 | |
| 20260506235346 | 53 | 355 | 0.0 | 13.0 | 0.00 | 0.04 | 0.00 | 48 | |
| 20260506234846 | 53 | 202 | 2.0 | 9.0 | 0.00 | 0.04 | 0.00 | 49 | |
| 20260506234346 | 53 | 319 | 0.0 | 5.0 | 0.00 | 0.04 | 0.00 | 48 | |
| 20260506233846 | 53 | 352 | 3.0 | 6.0 | 0.00 | 0.04 | 0.00 | 48 | |
| 20260506233347 | 54 | 21 | 0.0 | 8.0 | 0.00 | 0.04 | 0.00 | 47 | |
| 20260506232846 | 54 | 9 | 3.0 | 9.0 | 0.00 | 0.04 | 0.00 | 46 | |
| 20260506232346 | 54 | 306 | 0.0 | 7.0 | 0.00 | 0.04 | 0.00 | 51 | |
| 20260506231846 | 53 | 326 | 1.0 | 11.0 | 0.00 | 0.04 | 0.00 | 50 | |
| 20260506231346 | 53 | 236 | 7.0 | 8.0 | 0.00 | 0.04 | 0.00 | 51 | |
| 20260506230846 | 53 | 352 | 2.0 | 6.0 | 0.00 | 0.04 | 0.00 | 53 | |
| 20260506230346 | 53 | 261 | 0.0 | 6.0 | 0.00 | 0.04 | 0.00 | 56 | |
| 20260506225846 | 53 | 191 | 0.0 | 7.0 | 0.00 | 0.04 | 0.00 | 56 | |
| 20260506225346 | 54 | 307 | 2.0 | 10.0 | 0.00 | 0.04 | 0.00 | 55 | |
| 20260506224847 | 56 | 230 | 0.0 | 10.0 | 0.00 | 0.04 | 0.00 | 46 | |
| 20260506224346 | 57 | 234 | 4.0 | 11.0 | 0.00 | 0.04 | 0.00 | 38 | |
| 20260506223846 | 57 | 229 | 5.0 | 10.0 | 0.00 | 0.04 | 0.00 | 38 | |
| 20260506223347 | 57 | 210 | 3.0 | 6.0 | 0.00 | 0.04 | 0.00 | 38 | |
| 20260506222847 | 57 | 334 | 2.0 | 10.0 | 0.00 | 0.04 | 0.00 | 38 | |
| 20260506222347 | 57 | 237 | 5.0 | 14.0 | 0.00 | 0.04 | 0.00 | 37 | |
| 20260506221847 | 57 | 322 | 2.0 | 14.0 | 0.00 | 0.04 | 0.00 | 37 | |
| 20260506221347 | 57 | 279 | 0.0 | 12.0 | 0.00 | 0.04 | 0.00 | 37 | |
| 20260506220847 | 56 | 344 | 2.0 | 14.0 | 0.00 | 0.04 | 0.00 | 40 | |
| 20260506220347 | 55 | 327 | 0.0 | 12.0 | 0.00 | 0.04 | 0.00 | 43 | |
| 20260506215847 | 56 | 270 | 0.0 | 17.0 | 0.00 | 0.04 | 0.00 | 41 | |
| 20260506215347 | 58 | 260 | 2.0 | 19.0 | 0.00 | 0.04 | 0.00 | 38 | |
| 20260506214847 | 58 | 274 | 4.0 | 10.0 | 0.00 | 0.04 | 0.00 | 36 | |
| 20260506214347 | 58 | 14 | 0.0 | 9.0 | 0.00 | 0.04 | 0.00 | 38 | |
| 20260506213847 | 58 | 344 | 3.0 | 15.0 | 0.00 | 0.04 | 0.00 | 37 | |
| 20260506213347 | 58 | 120 | 9.0 | 12.0 | 0.00 | 0.04 | 0.00 | 36 | |
| 20260506212847 | 58 | 330 | 6.0 | 9.0 | 0.00 | 0.04 | 0.00 | 40 | |
| 20260506212347 | 58 | 192 | 0.0 | 9.0 | 0.00 | 0.04 | 0.00 | 42 | |
| 20260506211847 | 59 | 306 | 7.0 | 11.0 | 0.00 | 0.04 | 0.00 | 43 | |
| 20260506211347 | 58 | 1 | 1.0 | 8.0 | 0.00 | 0.04 | 0.00 | 41 | |
| 20260506210847 | 59 | 293 | 1.0 | 11.0 | 0.00 | 0.04 | 0.00 | 36 | |
| 20260506210347 | 59 | 275 | 5.0 | 11.0 | 0.00 | 0.04 | 0.00 | 39 | |
| 20260506205847 | 58 | 109 | 0.0 | 11.0 | 0.00 | 0.04 | 0.00 | 38 | |
| 20260506205347 | 57 | 322 | 3.0 | 11.0 | 0.00 | 0.04 | 0.00 | 43 | |
| 20260506204847 | 56 | 216 | 1.0 | 11.0 | 0.00 | 0.04 | 0.00 | 42 | |
| 20260506204347 | 56 | 319 | 7.0 | 12.0 | 0.00 | 0.04 | 0.00 | 41 | |
| 20260506203847 | 57 | 258 | 1.0 | 11.0 | 0.00 | 0.04 | 0.00 | 41 | |
| 20260506203347 | 58 | 272 | 0.0 | 10.0 | 0.00 | 0.04 | 0.00 | 42 | |
| 20260506202847 | 57 | 210 | 0.0 | 4.0 | 0.00 | 0.04 | 0.00 | 41 | |
| 20260506202347 | 57 | 12 | 0.0 | 10.0 | 0.00 | 0.04 | 0.00 | 44 | |
| 20260506201847 | 56 | 351 | 8.0 | 9.0 | 0.00 | 0.04 | 0.00 | 46 | |
| 20260506201347 | 55 | 251 | 0.0 | 6.0 | 0.00 | 0.04 | 0.00 | 54 | |
| 20260506200847 | 54 | 344 | 1.0 | 13.0 | 0.00 | 0.04 | 0.00 | 52 | |
| 20260506200347 | 55 | 203 | 0.0 | 9.0 | 0.00 | 0.04 | 0.00 | 50 | |
| 20260506195847 | 56 | 296 | 1.0 | 7.0 | 0.00 | 0.04 | 0.00 | 45 | |
| 20260506195347 | 55 | 122 | 4.0 | 10.0 | 0.00 | 0.04 | 0.00 | 43 | |
| 20260506194847 | 57 | 274 | 1.0 | 13.0 | 0.00 | 0.04 | 0.00 | 45 | |
| 20260506194347 | 56 | 49 | 2.0 | 13.0 | 0.00 | 0.04 | 0.00 | 41 | |
| 20260506193847 | 56 | 203 | 1.0 | 10.0 | 0.00 | 0.04 | 0.00 | 44 | |
| 20260506193347 | 56 | 240 | 3.0 | 7.0 | 0.00 | 0.04 | 0.00 | 43 | |
| 20260506192847 | 56 | 323 | 0.0 | 5.0 | 0.00 | 0.04 | 0.00 | 42 | |
| 20260506192347 | 56 | 270 | 0.0 | 13.0 | 0.00 | 0.04 | 0.00 | 41 | |
| 20260506191847 | 56 | 50 | 3.0 | 12.0 | 0.00 | 0.04 | 0.00 | 41 |